GFSWCAN_700_rhum_282.txt.gz
RH
2 2 2 3 4 6 3 4 5 8 13 42 33 14 7 4 11 36 61 67 98 100 86 74 80 94 85 84 98 95 99 92 96 98 95 93 94 95 95 96 95 94 95 95 99 98 82 29 21 19 17 24 36 40
2 3 7 36 60 84 35 32 48 34 17 33 38 21 7 4 4 6 20 47 84 98 97 69 76 82 83 94 100 98 99 100 97 96 95 96 94 95 95 94 95 94 93 76 81 28 16 14 14 19 25 35 40 45
3 11 37 40 94 100 87 65 66 55 37 32 33 16 6 4 4 6 30 16 67 72 98 73 69 67 96 98 100 99 96 100 99 97 96 96 95 95 93 93 96 94 95 94 88 36 14 10 14 20 27 38 48 45
12 44 50 43 51 56 65 51 56 39 32 33 24 9 5 5 12 84 29 16 86 77 98 73 79 94 91 97 100 97 96 97 97 96 96 96 98 96 96 91 95 94 92 86 57 22 15 15 18 26 33 38 40 45
20 28 27 27 33 40 67 60 52 36 35 26 11 6 5 29 61 79 56 26 55 94 98 80 93 92 100 100 97 96 99 97 96 97 96 98 98 98 95 96 94 87 95 80 35 13 9 11 14 17 25 39 45 48
10 15 20 29 30 50 60 50 50 46 34 19 8 20 62 68 72 99 96 29 47 100 98 98 84 81 86 88 92 96 99 98 97 96 97 96 97 98 95 95 76 93 9 7 8 9 11 10 11 16 30 43 47 50
13 10 13 18 21 26 34 62 60 49 28 11 32 66 71 96 96 98 98 96 99 95 95 97 92 67 83 88 89 88 99 99 97 97 98 97 97 96 96 90 89 96 58 20 10 8 7 9 12 23 36 45 50 48
44 22 13 19 21 27 52 63 58 34 11 8 54 70 95 96 97 98 99 96 98 99 98 94 86 78 76 82 90 92 96 97 98 98 97 96 97 96 93 89 26 4 5 7 5 5 6 9 15 26 41 45 48 42
55 34 19 22 31 51 56 61 32 10 8 30 96 84 96 96 92 90 91 98 99 99 96 99 87 83 85 87 97 97 97 97 98 97 98 97 97 91 80 23 6 5 5 4 4 5 7 10 17 30 34 40 45 50
64 42 27 26 56 54 45 27 9 11 20 78 87 98 97 90 89 91 96 99 98 96 94 91 89 100 96 96 96 96 96 98 98 97 98 97 86 92 83 11 6 4 5 5 5 6 8 10 16 24 36 44 52 62
72 46 28 37 60 49 30 11 9 35 79 96 97 98 97 96 96 96 97 97 94 87 89 85 94 99 97 97 97 97 97 97 97 98 97 95 22 8 35 11 6 5 6 6 6 6 8 12 18 27 37 46 52 57
82 50 27 46 56 40 22 10 46 65 97 98 99 96 96 96 97 98 100 93 91 94 92 93 95 96 96 97 97 97 97 97 97 89 98 73 5 4 4 5 6 6 6 7 7 8 11 15 18 26 34 40 42 42
93 53 28 46 48 40 13 10 16 63 84 97 97 98 95 90 96 93 88 81 93 90 94 95 95 96 97 98 96 97 97 97 95 87 31 7 4 5 5 5 6 6 7 8 9 11 13 16 22 27 32 38 40 39
92 39 29 46 42 29 7 5 9 89 98 98 96 96 95 93 92 84 91 94 96 96 96 96 97 95 96 97 97 97 96 96 94 22 6 4 5 5 5 6 6 7 8 9 11 14 16 20 25 29 36 39 40 45
80 32 36 40 34 13 6 5 47 95 97 97 95 95 90 92 95 96 96 96 96 96 96 97 100 97 96 96 97 97 96 65 24 10 4 5 5 6 6 6 7 8 10 12 14 17 20 25 32 38 43 49 57 61
43 42 34 32 19 6 5 5 22 92 97 97 92 82 88 94 96 96 96 97 96 97 97 97 96 97 96 96 96 62 14 7 6 4 5 5 6 6 6 7 8 10 12 14 17 21 26 31 36 41 52 62 64 66
27 26 33 18 8 5 4 10 77 100 96 93 85 83 83 82 92 98 96 95 97 96 96 96 95 96 95 83 52 35 7 5 4 5 5 6 6 6 7 8 9 11 12 16 20 24 30 38 46 55 60 61 60 65
23 27 18 8 5 8 21 58 80 98 92 88 90 87 92 93 96 96 96 97 97 97 97 96 96 95 56 14 11 7 5 5 5 5 6 6 6 7 8 8 10 11 13 17 18 24 36 49 56 58 56 59 62 69
24 16 7 9 31 69 100 98 99 95 89 88 85 88 94 96 95 96 97 97 96 96 97 96 96 80 14 38 10 5 5 6 6 6 6 7 7 8 8 9 11 12 12 13 20 31 43 51 54 54 58 65 70 76
12 6 7 87 99 97 98 97 93 96 88 88 88 92 95 95 96 96 96 96 96 96 97 95 94 60 46 7 5 6 6 6 6 7 7 7 8 8 9 11 11 10 11 17 24 33 42 50 55 54 52 55 64 68
5 6 10 65 96 96 96 99 100 96 96 93 92 95 97 95 96 96 97 97 96 94 95 95 96 66 9 6 6 7 6 6 6 6 8 9 9 10 10 11 9 11 14 17 22 31 44 48 52 53 50 48 51 54
20 20 39 95 94 98 99 98 99 99 97 97 93 95 93 94 95 97 96 96 94 95 96 98 76 7 5 6 7 7 7 7 8 8 8 10 10 10 11 11 11 12 13 16 22 28 38 46 49 51 52 58 62 64
88 95 98 97 98 98 91 89 94 92 98 93 84 91 94 94 95 95 94 92 95 97 97 91 13 6 6 7 7 7 7 8 8 9 10 10 11 12 12 13 12 12 14 17 21 26 33 42 48 54 56 59 62 64
99 99 96 96 94 96 90 90 85 83 87 93 98 99 96 95 95 95 92 95 97 96 91 56 11 6 5 5 6 7 7 8 9 10 11 12 13 14 14 14 13 13 15 18 22 26 33 40 46 51 55 62 70 74
94 93 91 89 91 91 95 90 85 87 92 97 96 93 92 96 96 93 93 96 97 91 87 54 42 48 45 33 7 6 6 7 8 10 12 13 15 16 16 16 15 15 17 20 26 32 38 44 47 50 57 65 71 74
83 84 83 92 92 91 92 89 89 91 96 98 95 94 95 95 95 96 96 96 96 96 92 79 85 80 42 8 5 5 6 6 8 11 14 15 19 20 20 18 15 17 17 22 29 35 41 44 49 57 62 65 68 74
86 91 91 89 89 90 88 93 96 96 97 95 95 96 96 95 96 94 77 72 91 93 86 82 79 65 57 35 9 5 6 7 9 12 15 18 21 22 22 19 16 18 21 26 31 38 42 48 55 59 61 62 66 74
96 94 92 87 93 94 96 97 97 96 96 96 97 96 96 95 70 33 66 85 83 85 78 71 52 24 7 4 4 5 7 9 11 15 18 22 23 23 22 20 17 21 24 28 34 41 46 54 57 60 63 68 74 79
89 94 95 95 95 96 95 96 96 96 96 97 96 97 96 96 72 16 29 79 78 72 71 58 29 6 5 6 6 7 8 11 15 18 21 22 22 25 24 19 20 23 27 31 38 44 53 56 60 65 71 77 82 86
87 94 95 94 95 96 96 94 66 50 72 96 96 96 97 64 13 6 5 6 45 30 11 15 8 5 6 7 9 11 14 16 18 19 20 22 25 25 22 20 23 27 31 36 42 49 57 59 64 72 80 86 92 95
95 95 95 96 96 96 96 88 34 62 89 95 96 94 73 70 18 7 6 6 5 5 5 6 7 8 10 11 12 13 15 17 18 20 20 24 28 28 25 25 28 32 36 40 45 55 62 64 70 77 86 95 99 100
93 95 96 96 96 95 94 76 31 72 73 94 94 62 16 8 9 10 7 7 7 9 10 11 12 12 13 14 15 16 18 19 21 22 24 28 32 32 30 30 31 35 41 45 50 60 65 68 71 81 87 96 100 100
96 96 96 97 96 94 94 70 27 23 61 51 67 61 48 9 9 8 8 8 10 12 13 13 14 14 15 17 18 20 22 24 26 28 30 34 37 37 35 34 35 41 47 50 55 64 69 71 74 80 80 88 97 100

GFSWCAN_700_rhum_288.txt.gz
RH
42 20 6 2 1 1 2 2 23 74 100 100 56 34 29 28 40 48 76 99 98 93 67 61 50 55 82 96 83 90 98 92 95 96 96 93 92 92 95 91 92 97 96 97 100 98 87 67 75 89 80 21 21 20
29 9 2 1 2 2 3 26 64 76 100 98 48 36 28 18 25 89 83 96 98 98 82 74 70 55 41 42 100 93 96 69 100 97 95 96 96 94 94 95 81 96 92 94 94 89 94 95 95 95 96 89 46 28
11 2 1 2 5 3 8 26 33 28 32 60 56 44 33 26 24 89 87 82 99 96 72 84 60 54 59 67 74 98 95 87 83 99 96 97 96 95 96 90 92 96 96 96 95 88 95 95 96 96 96 92 51 42
2 1 2 10 6 8 14 18 21 22 25 42 61 47 35 31 30 39 85 98 100 95 93 60 59 66 58 56 63 85 97 96 96 84 97 95 98 96 94 95 95 89 92 95 94 94 96 97 96 97 79 57 48 49
2 2 13 21 16 15 11 11 12 15 21 33 48 47 34 38 50 75 91 81 80 90 87 63 52 53 63 76 98 90 74 56 89 100 99 96 99 100 95 97 88 86 86 92 95 96 97 97 96 90 33 26 38 52
2 10 29 34 39 44 46 42 25 17 22 30 32 33 36 43 46 86 54 43 58 78 97 99 93 73 75 61 64 69 73 93 100 100 99 95 94 100 96 96 82 85 88 97 97 96 96 96 56 21 19 20 31 47
14 29 38 44 54 58 56 45 22 22 31 34 28 34 35 25 35 77 72 73 93 96 97 97 87 78 79 79 66 67 90 100 100 98 96 96 100 99 96 92 75 88 97 99 98 97 96 68 23 19 14 19 32 39
28 40 60 66 66 67 62 43 29 33 45 40 29 27 15 16 55 83 84 87 93 98 97 96 89 85 75 78 87 91 96 98 94 98 98 98 97 97 95 74 95 100 98 96 96 97 99 52 20 15 17 23 29 35
68 88 98 90 77 74 66 43 33 50 51 33 22 18 20 56 76 81 90 88 89 100 97 98 88 86 84 86 92 95 96 96 100 100 99 98 95 88 88 96 96 96 79 14 10 22 24 18 14 15 18 23 28 36
90 96 100 95 85 78 66 42 47 93 46 26 14 46 72 76 77 69 62 71 96 98 100 90 89 100 96 96 96 96 98 96 100 98 97 89 88 97 98 96 96 59 15 8 7 9 12 10 10 14 19 24 31 39
86 91 98 96 91 90 82 43 86 87 40 14 20 47 74 68 60 59 89 96 98 96 95 92 96 96 96 96 97 96 97 97 97 96 97 95 87 29 96 89 62 23 12 7 7 7 8 9 11 16 21 26 30 39
85 92 98 97 97 95 84 44 94 75 29 23 48 51 50 55 87 90 90 91 95 95 95 95 96 96 96 97 97 98 97 96 96 96 96 93 57 11 79 49 10 8 8 7 7 8 10 12 15 19 22 30 38 43
86 95 97 98 98 97 86 71 97 62 20 47 75 41 39 78 84 92 94 95 95 96 95 96 96 97 97 96 97 97 97 96 97 96 94 84 17 7 33 22 9 7 7 8 9 11 13 15 18 25 30 35 41 45
85 96 98 97 97 98 83 88 71 45 21 19 49 60 58 77 90 94 96 96 94 94 98 97 97 96 96 96 96 96 96 96 96 96 77 18 6 6 6 7 7 8 9 10 11 13 14 20 25 28 35 44 50 56
91 96 98 97 98 97 75 71 61 44 26 34 62 80 67 65 74 93 91 90 97 95 97 96 96 98 97 96 96 96 96 96 94 76 14 7 5 6 7 7 8 8 9 9 11 14 17 19 25 36 42 46 50 53
100 97 97 96 97 94 77 78 53 39 22 30 65 68 65 72 67 71 91 95 100 97 95 96 96 97 95 95 96 96 94 51 11 8 7 6 6 6 7 8 8 7 8 9 10 11 15 22 29 33 34 37 40 44
98 96 93 97 96 90 84 69 40 17 18 26 21 15 22 33 54 72 91 98 100 97 96 96 95 96 95 95 94 93 56 10 7 6 6 6 6 7 8 8 8 8 7 7 9 12 16 21 22 22 28 34 38 43
95 97 97 94 89 74 53 39 26 14 10 7 8 12 37 66 82 87 94 100 99 96 96 97 96 95 94 93 90 60 17 7 5 5 6 6 7 7 8 9 9 7 7 8 11 13 15 16 17 21 29 36 41 44
94 96 97 96 53 35 36 25 17 26 14 11 24 63 81 83 82 88 94 98 98 97 97 96 95 92 93 94 94 51 32 5 5 6 7 7 7 8 9 10 8 8 8 10 12 12 13 14 18 24 30 38 43 46
96 98 96 52 30 31 20 32 40 51 60 67 73 78 86 85 87 90 94 98 99 98 96 93 92 96 97 94 91 57 7 5 6 7 7 8 8 9 10 11 10 10 10 11 12 11 13 15 19 24 31 37 41 46
92 87 49 26 24 17 69 100 93 88 81 81 82 87 82 74 82 89 90 98 98 90 93 96 97 98 97 96 59 10 6 6 7 7 8 10 11 11 12 12 13 13 12 11 12 12 14 18 21 25 32 39 45 49
92 50 24 20 48 97 97 91 88 83 81 76 75 73 72 72 77 82 89 94 87 95 96 98 96 96 94 93 70 6 6 7 7 8 8 9 10 12 14 14 16 17 14 13 13 14 16 19 23 28 37 43 48 49
30 23 16 29 74 88 77 72 86 86 92 84 77 81 83 84 90 93 96 91 96 98 97 95 97 95 88 73 14 7 8 8 9 9 10 11 12 13 15 18 20 20 18 16 15 16 18 21 25 32 38 44 49 55
15 10 13 26 33 85 86 82 81 84 86 84 86 92 95 98 96 97 95 96 95 96 96 96 97 96 59 8 7 8 9 9 9 10 10 12 13 15 18 20 23 23 22 18 16 17 20 24 28 32 38 47 53 56
52 73 92 89 88 89 87 82 80 88 88 91 99 99 95 96 97 96 96 95 95 95 96 97 98 81 8 7 8 8 8 9 9 8 9 10 13 16 19 23 26 26 24 21 19 20 22 26 30 34 42 49 52 55
90 85 83 89 87 88 93 90 91 94 96 97 96 95 95 96 96 97 95 90 85 84 95 96 97 40 7 7 6 7 13 11 8 8 9 10 12 17 20 25 28 29 28 23 20 22 25 27 31 37 46 51 54 60
87 84 85 81 89 95 96 95 96 96 97 96 96 96 96 96 96 95 73 61 36 79 90 97 97 45 8 14 27 38 20 23 20 15 9 10 13 17 22 28 29 30 29 24 22 24 27 29 32 40 49 54 60 67
84 83 89 94 96 96 96 96 97 95 95 96 97 96 95 96 96 97 96 65 15 82 93 98 97 45 10 16 32 62 90 81 74 22 10 11 15 20 26 30 32 32 29 25 25 27 30 32 35 45 54 60 66 75
88 93 98 98 96 97 96 96 96 96 96 97 92 85 95 96 96 94 45 12 8 76 91 98 98 65 45 60 78 99 94 51 32 12 11 14 19 26 28 30 32 32 30 28 29 31 33 35 40 51 60 64 73 83
90 90 93 96 96 96 96 96 96 96 96 77 83 90 97 97 86 28 8 6 17 82 80 96 96 94 94 94 80 42 12 10 11 12 16 22 26 27 27 30 34 35 34 34 32 34 37 39 44 58 66 69 78 85
93 94 96 96 95 96 96 96 96 96 71 68 90 96 95 90 59 11 7 6 9 56 70 40 60 74 56 23 10 8 9 11 15 18 21 23 25 27 30 35 39 40 40 39 36 38 41 45 52 64 70 74 78 81
96 96 97 96 95 96 96 96 96 80 40 50 88 89 36 22 20 26 8 7 7 7 7 8 8 8 9 11 13 14 16 17 19 22 24 27 30 33 37 40 43 45 45 45 44 44 46 51 58 69 73 77 76 77
96 96 96 96 95 95 96 97 94 76 21 15 41 67 62 52 25 10 10 10 11 12 13 13 14 14 14 15 17 19 20 22 24 27 31 34 36 40 42 46 49 51 52 53 52 51 54 58 64 74 77 80 72 75

GFSWCAN_700_rhum_291.txt.gz
RH
32 42 49 49 18 2 1 2 3 14 60 100 100 100 81 35 32 33 58 97 84 86 78 79 87 85 91 98 88 87 91 80 90 100 96 93 92 86 95 89 94 95 96 97 99 96 85 60 77 93 95 95 72 30
43 55 53 22 4 1 2 7 6 27 67 55 42 40 40 37 45 52 51 91 95 100 91 79 91 94 92 88 98 94 96 95 90 100 80 92 95 91 92 98 90 94 87 93 95 84 89 94 95 96 96 96 92 93
61 52 21 3 1 2 8 10 9 18 30 30 25 26 39 58 77 64 91 88 97 96 78 70 58 63 66 83 84 94 88 93 90 86 100 100 96 94 100 92 93 93 91 99 94 82 90 95 96 97 97 97 97 94
42 14 2 2 2 7 22 20 11 13 17 22 21 23 41 69 74 72 96 93 98 98 98 60 62 59 60 60 64 70 83 100 100 98 97 96 100 99 97 100 94 99 96 92 91 89 96 96 94 92 97 97 97 87
5 2 2 3 11 31 36 40 41 30 24 19 18 22 38 57 70 92 92 92 85 100 87 68 59 54 67 76 79 76 91 100 99 98 98 98 97 99 95 98 90 93 81 94 96 98 98 96 96 96 97 90 44 68
2 2 3 11 68 54 47 51 53 50 39 29 22 32 43 44 67 91 50 40 69 99 99 86 72 68 75 83 64 71 83 92 100 97 96 96 95 100 96 100 96 91 96 98 97 96 96 96 96 96 34 22 25 51
4 8 8 30 41 47 56 63 63 56 39 28 36 51 35 36 40 52 49 45 72 99 99 97 90 94 80 72 73 82 89 96 100 98 98 100 97 98 97 92 86 97 96 99 100 98 97 96 96 46 19 15 20 38
19 15 22 34 43 71 93 82 69 59 39 37 61 32 26 18 20 53 85 95 100 100 98 97 91 85 82 85 93 92 96 96 96 98 98 98 97 97 94 89 97 98 98 97 97 97 96 97 64 19 14 17 26 34
36 25 41 74 98 98 99 91 74 56 37 64 36 25 20 27 53 76 75 74 85 95 99 97 97 100 96 95 96 97 96 98 99 99 97 97 96 94 97 96 96 96 89 16 15 34 71 40 15 14 16 24 28 29
54 46 82 99 99 100 100 91 77 56 47 62 31 21 23 54 74 70 57 60 76 89 100 92 94 97 97 96 95 96 99 97 100 95 97 96 90 95 98 97 94 94 17 9 8 10 11 11 13 16 19 21 24 30
68 73 89 98 100 99 98 94 88 60 66 62 37 24 40 44 62 49 77 85 93 94 94 94 96 96 95 96 97 96 97 97 97 95 96 94 74 22 90 88 67 27 13 10 8 8 9 10 12 15 18 22 28 32
74 77 90 97 98 98 99 98 93 68 70 61 44 35 65 46 62 85 90 94 95 94 94 96 96 97 96 98 96 98 97 96 97 96 96 85 65 14 83 38 10 9 9 9 9 9 10 12 14 17 20 22 25 29
74 80 89 95 98 99 99 98 93 72 75 68 35 46 42 61 76 84 93 95 92 97 97 99 100 99 97 96 97 96 97 96 97 96 90 82 16 38 69 28 14 8 8 8 10 10 12 13 13 15 18 22 27 34
68 80 90 94 97 99 98 97 93 81 82 66 31 33 37 61 73 85 89 83 92 94 95 97 98 97 97 96 96 96 96 96 96 96 84 23 6 6 10 17 11 7 8 8 9 9 9 10 12 14 16 24 33 40
82 79 86 97 97 99 97 95 92 82 88 56 34 49 51 55 68 79 71 67 86 93 97 96 95 95 98 96 94 96 96 95 91 73 30 8 6 6 7 7 7 7 7 7 7 7 8 8 10 15 21 25 28 35
100 100 99 100 98 98 96 94 97 99 91 68 20 30 57 62 73 83 66 64 89 98 97 97 95 97 96 93 93 94 94 64 14 9 8 6 6 6 7 8 7 6 6 6 7 7 7 8 11 15 17 21 26 33
98 94 96 100 98 96 96 96 98 97 80 33 21 12 8 9 14 33 62 86 95 100 99 96 95 95 95 95 88 90 76 30 8 6 6 6 6 7 7 8 7 6 6 7 6 7 8 10 12 14 17 21 28 35
96 90 99 98 94 96 97 96 100 92 39 25 18 13 10 9 23 46 78 95 100 100 99 97 95 94 94 92 81 89 71 22 8 6 6 6 6 7 8 8 8 7 8 7 7 8 9 11 12 14 17 23 29 37
87 97 96 96 97 97 96 87 78 59 28 21 17 14 15 48 76 87 92 94 100 99 99 97 95 90 92 95 96 94 85 44 8 6 6 6 7 8 8 9 10 9 8 8 8 9 10 12 14 16 20 24 30 36
96 97 96 98 97 96 66 56 38 33 22 19 18 37 66 73 83 91 94 99 100 100 98 93 92 96 97 97 96 96 93 62 7 6 6 7 8 9 9 10 11 12 10 10 10 10 11 13 15 18 22 27 34 40
97 96 98 97 96 78 44 36 28 28 58 71 70 79 84 83 80 77 78 87 95 84 82 95 97 98 98 96 95 95 50 8 6 7 7 8 9 10 11 12 13 13 14 13 12 12 13 14 17 19 24 30 37 44
91 96 96 94 68 37 34 30 38 65 80 79 79 77 73 72 72 72 83 86 80 89 96 96 95 96 96 94 94 79 31 6 7 7 8 9 10 11 12 13 14 15 16 17 16 15 15 16 19 22 27 33 39 46
96 97 94 57 30 25 44 40 54 66 84 84 79 82 82 81 85 88 93 85 92 96 95 96 96 96 96 96 86 73 11 7 8 8 9 10 11 12 13 14 16 18 20 21 22 18 17 18 22 25 30 34 43 50
92 64 33 24 21 38 34 55 66 83 87 83 85 88 91 93 91 93 88 94 96 97 95 96 96 96 96 96 87 25 7 8 9 9 10 11 12 13 14 16 18 21 24 26 25 22 20 22 25 27 31 37 46 50
27 24 16 25 43 54 44 74 86 86 88 90 96 95 94 97 98 95 94 96 95 87 89 97 97 97 98 86 33 8 8 9 9 10 10 10 11 12 14 16 20 24 28 28 28 25 23 25 27 30 34 41 48 52
35 70 80 90 92 90 92 94 95 96 96 97 96 96 98 99 97 96 95 93 89 75 34 93 96 96 87 26 8 8 8 9 9 9 10 10 10 11 13 17 22 28 29 30 30 27 26 27 29 32 37 45 50 56
93 92 93 92 95 96 96 95 96 97 98 98 96 95 95 95 97 96 94 95 95 54 19 83 95 97 59 11 8 8 8 22 28 33 31 21 11 11 13 18 24 30 32 33 32 29 27 29 32 34 40 49 55 60
93 92 94 96 95 96 97 98 98 97 98 97 97 95 95 96 98 99 97 96 66 12 21 89 95 96 55 8 8 25 65 82 93 83 67 27 12 12 16 21 30 32 33 34 33 31 31 32 34 37 42 53 60 65
90 93 95 96 97 97 97 97 96 96 96 97 96 96 94 96 96 96 95 50 9 8 48 87 96 95 64 11 19 37 29 45 94 97 60 20 12 15 22 29 30 31 34 36 36 36 34 35 37 40 47 57 65 71
92 94 93 92 96 96 94 96 96 96 96 97 95 81 91 96 96 68 16 8 7 63 74 94 99 96 74 22 18 48 91 95 58 28 19 13 17 26 28 29 30 34 38 40 40 40 39 39 41 44 52 64 70 76
96 96 96 96 95 96 96 96 96 95 96 89 58 74 97 88 77 43 9 7 7 29 86 68 95 98 90 80 92 95 68 25 11 11 14 20 26 27 29 31 35 38 42 44 46 46 45 44 46 50 58 70 76 78
97 97 97 94 94 96 96 95 95 96 95 52 33 82 85 41 52 19 21 9 9 8 8 9 15 26 30 16 11 10 10 13 15 19 23 25 28 31 33 36 40 45 49 51 52 52 51 51 53 57 66 76 81 77
96 96 96 95 95 95 96 96 96 96 90 32 10 22 60 58 49 34 17 11 12 12 14 13 13 13 13 14 15 16 18 19 22 25 27 30 33 36 40 43 48 53 56 57 56 57 58 60 62 66 72 81 84 76

GFSWCAN_700_rhum_294.txt.gz
RH
67 51 45 52 57 54 33 10 2 1 5 23 100 98 99 99 96 99 91 100 100 100 81 74 77 85 95 99 98 98 98 88 96 84 95 93 89 73 73 65 84 91 93 90 95 96 91 64 82 92 97 96 97 97
52 55 57 62 57 37 12 2 3 7 14 13 96 100 100 100 99 99 93 100 100 100 67 60 76 91 94 93 97 91 90 91 99 99 96 94 93 89 92 97 81 91 80 91 95 77 81 94 96 97 97 96 97 98
63 65 61 48 32 11 2 3 29 30 31 18 43 100 100 100 100 100 98 100 100 88 58 55 58 74 78 77 83 93 78 84 83 89 96 97 98 96 99 88 97 92 87 97 96 82 89 97 97 99 97 96 96 98
54 40 29 19 8 2 3 16 65 55 54 26 26 40 74 71 79 97 97 100 100 99 95 41 44 40 49 59 75 85 91 93 96 98 97 97 100 96 96 97 95 88 94 95 96 95 99 93 93 95 94 95 96 97
15 8 4 3 3 4 8 62 100 94 76 57 45 90 74 45 65 66 64 75 87 96 73 50 61 63 67 64 66 77 85 100 100 98 97 96 96 100 96 99 85 82 92 97 97 97 98 98 97 96 93 95 96 78
3 3 3 3 6 12 38 100 98 96 99 81 53 37 34 61 100 67 49 43 66 92 100 98 69 60 53 62 70 83 83 82 86 98 96 95 95 100 97 97 94 97 96 98 97 98 97 98 97 96 97 93 32 29
6 6 9 10 21 40 55 91 100 94 100 79 58 52 80 99 79 75 58 32 48 80 95 96 95 80 81 76 84 91 97 97 97 97 95 98 99 100 97 95 94 96 97 96 96 98 98 97 97 96 93 25 19 26
20 21 19 23 31 24 47 100 99 98 98 82 56 44 61 38 25 27 38 87 94 100 100 97 92 87 81 90 94 94 96 95 95 97 96 96 97 98 92 89 96 97 97 84 60 89 97 96 97 50 19 16 19 26
38 37 42 40 26 40 85 100 99 97 95 80 49 54 43 22 25 37 72 82 80 86 99 96 94 96 93 94 95 93 94 99 100 98 97 96 90 94 98 100 98 97 96 54 16 33 80 59 22 16 15 15 17 22
52 53 64 56 41 84 96 96 97 98 94 82 56 71 30 32 65 76 74 64 77 90 97 92 98 96 97 95 94 96 100 98 99 96 98 94 91 85 81 100 87 93 32 10 10 10 10 11 11 11 13 16 18 20
58 62 72 67 68 97 94 97 98 97 95 93 64 62 44 35 50 54 67 84 94 93 90 87 98 99 96 97 99 98 97 97 95 95 96 94 76 20 78 73 47 15 9 8 8 9 10 11 12 13 14 17 21 25
73 64 74 78 88 97 98 97 98 95 97 85 79 57 28 32 56 71 91 93 93 91 86 94 97 98 96 96 96 99 97 94 94 95 95 79 63 35 70 14 9 8 8 8 9 9 9 10 11 13 14 15 18 23
97 77 74 82 93 98 97 97 97 96 97 87 79 38 33 59 73 84 90 93 83 93 95 97 98 97 95 97 99 96 96 95 97 95 87 78 15 51 47 16 8 7 7 7 7 8 8 9 8 9 11 12 14 17
96 96 78 82 94 95 97 98 96 97 97 95 70 30 36 57 62 81 86 87 75 80 94 98 95 100 98 98 96 96 96 96 95 93 84 33 7 7 18 20 10 6 6 6 6 7 6 7 8 8 8 10 13 16
97 96 93 84 96 98 97 98 96 96 97 95 48 34 30 38 64 86 99 98 94 72 90 95 95 90 96 97 93 95 96 94 91 78 23 10 6 6 7 8 6 6 6 6 6 6 6 6 6 7 8 10 12 16
97 97 96 95 99 97 98 96 97 96 97 96 56 24 29 60 60 70 75 86 77 76 95 96 94 96 94 90 91 91 95 73 23 19 10 8 6 6 7 8 7 6 6 6 6 6 7 7 7 7 8 11 14 18
99 94 94 98 99 98 98 98 97 96 96 83 61 30 24 21 12 9 14 20 46 79 99 97 95 96 95 96 85 90 82 61 31 16 7 7 6 6 7 8 8 7 6 6 7 7 8 8 8 9 10 12 15 19
97 89 96 97 98 97 98 97 97 95 85 78 72 30 25 18 14 12 13 52 84 97 100 98 96 94 94 94 87 93 95 94 62 26 6 6 6 6 7 8 9 9 8 7 8 8 8 8 9 10 11 13 16 22
82 96 97 96 98 96 95 96 96 92 83 60 30 25 23 19 17 22 62 87 99 100 99 97 94 87 93 96 97 97 96 93 90 51 6 6 6 7 8 9 10 11 11 10 10 10 10 10 10 12 13 15 19 23
96 97 97 97 96 97 98 96 83 70 31 25 23 22 22 30 53 80 90 98 100 100 98 92 77 88 97 97 97 96 97 95 89 56 7 6 7 8 9 10 11 12 12 13 13 13 12 12 12 13 15 17 21 25
98 97 96 96 97 98 97 88 65 26 24 22 41 66 69 74 78 84 83 83 86 75 72 83 98 97 97 98 98 96 95 95 83 15 7 7 8 10 10 12 13 14 14 16 17 17 16 14 14 15 17 20 22 26
84 93 97 98 97 97 97 86 36 30 33 34 43 58 67 75 75 75 84 80 75 84 98 97 97 97 96 96 96 96 96 94 35 7 7 8 9 10 10 12 13 14 16 19 20 21 19 17 17 18 20 22 24 28
94 96 96 97 98 96 56 39 28 26 32 35 37 64 80 81 83 86 91 84 88 98 97 96 96 95 96 96 96 97 96 76 14 7 8 10 10 11 12 13 15 17 19 22 23 23 24 22 20 21 23 25 27 34
97 98 97 88 58 36 33 35 32 35 46 72 83 86 88 90 90 92 88 89 96 96 94 76 91 98 97 97 97 97 92 35 8 8 10 11 12 12 13 14 15 17 20 23 26 27 28 26 23 23 25 27 30 37
92 67 28 22 18 19 29 33 42 58 80 88 96 96 96 96 98 95 95 96 96 95 95 37 49 97 96 96 98 95 54 9 9 10 12 12 12 12 12 12 14 17 20 26 29 30 30 27 24 26 27 28 32 39
22 33 34 73 90 94 92 93 96 96 96 95 95 96 97 96 98 97 98 97 96 96 96 46 26 92 98 99 95 49 10 8 10 11 12 12 11 10 10 11 13 16 22 28 30 32 31 28 27 28 29 30 34 44
72 88 93 93 96 96 96 95 95 96 97 96 95 96 97 95 97 97 97 96 95 96 87 28 19 85 98 95 46 12 9 10 10 11 21 34 35 25 14 12 14 17 26 29 31 32 32 30 30 30 31 33 38 50
82 94 96 97 96 96 95 95 95 95 97 96 96 95 94 94 95 96 95 92 91 50 10 10 42 89 95 93 25 9 10 14 48 87 92 83 66 37 15 13 15 24 28 29 32 34 34 33 32 32 34 37 44 57
90 92 92 93 96 96 95 95 96 96 97 97 97 97 96 94 96 95 94 46 10 8 32 74 88 96 96 96 26 9 10 61 74 40 65 96 78 32 14 16 24 28 29 32 36 37 37 36 35 36 38 43 51 62
92 96 96 94 95 96 95 96 96 96 97 98 97 97 86 85 98 94 51 9 7 10 81 75 94 97 98 90 22 9 23 41 26 68 97 72 28 15 18 25 28 30 33 37 40 42 42 41 40 41 44 49 57 68
96 96 96 96 95 96 96 96 97 97 97 99 99 80 56 91 66 53 34 13 8 7 24 58 90 95 96 91 51 23 28 72 96 71 28 16 15 21 27 30 33 36 39 44 47 48 47 45 45 48 51 56 64 76
94 99 97 96 95 96 96 96 97 96 96 97 85 36 33 81 61 48 25 17 13 13 14 10 10 37 79 97 96 93 67 23 11 12 14 18 26 30 33 36 39 43 47 52 55 55 52 50 52 56 60 64 71 82
90 97 99 97 96 96 97 97 96 95 95 96 80 36 11 18 41 38 32 23 14 11 12 14 14 14 13 12 13 14 16 18 20 23 26 30 33 37 41 45 48 52 57 61 63 63 58 55 59 66 71 74 79 87

GFSWCAN_700_rhum_297.txt.gz
RH
57 56 57 57 57 58 54 48 35 24 13 4 18 16 37 95 95 96 96 98 99 98 72 72 84 95 97 98 98 96 92 68 94 91 97 90 81 75 74 71 79 86 96 94 96 96 90 65 79 94 97 95 94 92
55 56 55 52 48 49 45 36 24 15 5 9 65 44 25 90 93 96 86 95 100 99 72 74 72 68 92 100 99 95 88 83 98 99 97 97 97 93 77 95 80 90 72 80 96 79 72 77 88 97 95 96 96 96
61 59 55 44 37 30 25 15 9 4 6 42 100 69 28 77 96 95 92 98 100 95 59 48 56 52 56 64 89 89 78 85 92 89 94 96 100 98 98 88 84 86 80 99 98 79 90 95 94 96 96 96 95 96
66 58 47 31 17 10 7 6 4 4 21 92 99 100 82 87 96 88 94 98 99 98 84 30 39 56 67 84 85 86 90 94 98 98 98 98 98 89 88 88 95 98 98 96 92 90 99 96 94 96 97 96 92 95
60 49 32 18 10 6 5 5 7 18 78 97 98 97 85 57 67 99 100 90 76 81 60 42 54 62 49 54 60 66 72 90 97 97 99 98 97 100 95 98 94 92 95 99 97 96 97 97 98 96 95 95 94 97
39 26 17 14 13 11 10 12 42 80 90 100 95 96 85 90 99 99 86 46 69 100 100 96 58 54 53 54 69 85 95 97 100 100 99 98 98 98 97 98 95 94 96 98 98 98 98 98 97 96 96 96 97 71
24 28 30 31 28 26 30 65 100 99 99 97 95 98 93 81 97 96 74 50 50 49 81 88 79 63 69 75 87 94 94 96 98 97 96 97 97 98 96 94 97 97 97 96 95 96 97 97 95 95 96 79 22 18
68 66 55 53 70 71 63 100 100 100 98 96 98 99 90 51 57 52 32 31 51 90 100 95 80 73 73 82 88 90 91 90 94 98 99 96 95 98 91 93 97 98 95 95 58 32 92 93 93 58 21 16 16 18
98 88 70 67 57 88 89 100 100 98 96 99 98 99 77 55 53 28 35 38 70 100 98 92 77 85 79 92 95 94 94 95 96 89 92 93 87 84 89 98 95 82 88 42 16 41 55 29 16 14 14 13 14 16
95 96 94 78 71 65 71 78 97 96 97 97 98 98 83 56 60 67 47 47 51 70 93 84 89 98 99 97 96 97 99 95 95 89 92 90 82 44 72 74 72 71 25 8 10 10 9 9 10 11 12 14 16 18
98 98 96 96 78 75 73 83 97 97 98 94 96 96 82 75 46 35 59 68 89 94 91 84 94 100 98 99 100 97 96 94 93 90 94 88 75 32 59 42 20 9 8 8 8 9 9 8 9 10 10 11 13 17
98 96 97 95 91 82 78 96 97 99 97 96 96 90 78 48 35 65 87 91 92 94 87 92 95 100 99 95 95 97 95 93 92 94 93 77 40 65 25 8 7 7 7 7 7 7 6 6 6 7 8 10 11 13
96 98 97 96 96 93 94 96 97 98 97 96 96 87 40 48 71 88 91 92 87 88 77 72 93 99 98 96 99 95 95 95 96 93 84 77 12 44 34 12 7 6 6 6 6 5 6 6 6 6 7 8 9 11
86 98 98 96 96 95 96 97 97 98 96 96 96 78 28 58 65 76 83 92 100 82 91 71 90 100 98 97 96 95 95 95 94 88 84 40 9 7 12 16 7 6 5 5 5 6 6 6 6 7 7 7 8 10
88 96 98 96 95 96 96 96 98 97 96 97 90 40 27 37 60 90 93 100 99 100 99 68 85 91 98 98 95 96 95 93 87 77 46 14 8 6 7 8 6 5 5 5 6 6 7 7 7 8 8 8 9 10
90 99 94 96 96 96 97 97 98 95 96 98 86 66 54 28 56 54 67 80 71 41 31 66 90 94 95 92 92 91 94 81 49 29 32 13 7 6 6 7 8 6 6 6 6 7 7 8 8 9 9 9 10 12
92 97 91 96 97 98 97 98 98 96 97 91 73 92 79 59 37 25 21 19 23 22 58 92 92 93 94 96 86 88 87 85 69 54 38 16 6 6 6 7 8 9 8 7 7 8 8 9 9 10 10 11 12 14
94 85 98 97 97 96 97 96 98 97 91 81 82 79 77 55 27 23 21 21 19 42 81 99 95 92 92 88 81 93 96 96 95 93 86 24 6 6 6 7 8 10 10 10 9 9 10 10 11 12 13 14 16 18
100 99 96 95 97 98 97 98 98 93 84 80 77 70 33 26 25 23 21 23 46 87 100 97 93 80 75 80 96 97 96 96 95 93 92 58 7 6 7 8 9 10 11 12 13 14 14 14 14 15 15 16 18 21
98 97 97 97 97 97 97 95 90 92 89 79 56 25 25 29 52 64 75 91 100 100 99 93 77 84 95 97 97 97 96 96 96 95 96 60 7 7 8 9 10 12 13 14 16 17 18 18 18 18 17 19 21 22
96 97 97 96 96 97 94 93 93 90 72 38 24 38 63 54 56 72 81 85 84 73 68 78 95 100 96 97 97 96 96 96 97 96 94 27 8 8 9 11 12 14 15 16 18 20 22 23 22 20 19 21 23 25
92 97 95 97 96 96 97 94 93 82 79 49 27 25 25 35 62 75 82 80 75 85 97 97 97 96 96 96 96 97 96 96 97 98 86 12 8 9 11 12 13 14 15 17 21 23 24 26 26 23 21 23 25 26
96 97 96 94 97 96 92 89 90 74 52 30 23 39 68 80 84 84 90 85 90 98 98 97 96 94 92 96 96 97 97 97 97 97 45 9 9 10 12 12 14 15 16 19 22 24 26 27 28 25 24 26 27 28
95 97 97 95 90 80 64 43 31 28 30 41 62 85 92 90 92 96 91 92 98 97 96 96 94 40 38 94 96 97 97 97 97 69 11 9 11 12 13 13 13 15 16 18 22 26 28 30 29 26 25 27 29 30
98 93 86 60 32 20 22 22 42 76 89 95 96 94 94 97 96 96 98 97 96 96 96 96 97 75 26 81 97 97 97 97 72 11 9 11 12 12 12 12 12 13 14 18 24 28 30 31 30 28 28 29 31 32
30 26 20 43 77 93 95 95 96 96 97 99 96 94 96 96 96 96 97 97 97 97 97 97 89 35 15 76 97 98 95 56 10 9 10 11 12 12 12 12 12 13 15 18 27 31 32 32 31 31 31 31 32 35
29 70 87 95 96 98 97 94 96 96 98 98 96 96 95 94 96 96 97 96 97 95 88 41 11 13 28 89 98 93 37 11 9 10 11 13 23 29 36 28 16 14 16 25 31 32 33 34 34 35 34 34 34 36
38 69 94 96 97 97 96 96 95 94 93 95 96 95 95 95 95 96 96 95 78 18 8 23 71 86 89 94 97 53 11 9 11 18 69 87 89 96 68 34 17 16 23 31 32 33 36 38 39 38 37 36 36 40
86 89 90 93 94 96 96 96 96 96 96 97 97 97 96 97 98 97 96 63 11 8 14 82 71 95 96 98 98 41 10 10 26 91 58 46 91 97 78 32 18 22 32 32 34 38 41 43 43 41 38 38 41 46
95 99 98 97 99 99 96 97 97 97 96 97 97 97 97 96 82 94 81 40 10 8 13 49 76 93 92 96 96 33 11 11 59 82 47 57 98 74 32 19 24 33 34 37 40 44 47 50 48 43 40 43 48 53
98 97 96 97 95 97 96 97 97 96 96 96 96 96 96 72 76 78 53 30 14 11 12 13 18 76 98 100 85 27 12 12 20 25 73 96 57 28 20 24 34 37 40 43 47 51 55 56 53 46 44 49 56 61
52 68 79 88 90 95 97 96 96 96 97 97 97 97 86 35 37 85 66 46 29 14 13 14 13 12 40 97 99 91 90 94 96 82 27 17 16 19 30 37 40 44 47 51 57 61 64 65 61 51 51 59 69 73
86 94 96 97 96 96 96 96 95 95 96 97 96 95 75 36 19 21 18 17 15 14 12 13 15 16 17 16 14 14 14 14 16 19 22 26 32 37 41 44 48 52 57 62 68 72 75 76 68 58 61 75 82 82

GFSWCAN_700_rhum_300.txt.gz
RH
74 66 65 65 63 62 64 62 56 45 32 19 16 12 17 86 59 89 88 99 99 97 76 73 75 81 93 93 99 96 92 78 88 96 97 88 84 86 89 76 80 84 86 86 90 97 89 63 75 84 83 91 97 81
69 68 68 69 69 68 67 62 53 40 22 14 9 8 69 100 52 74 88 97 100 98 68 70 66 72 87 80 98 86 90 100 97 97 96 96 94 87 75 99 83 93 80 84 93 80 76 80 92 95 88 98 96 84
71 70 67 66 67 66 64 54 38 23 13 8 8 30 97 97 96 83 91 99 100 95 50 51 58 76 61 61 79 88 84 86 90 98 98 98 98 98 97 95 98 89 96 96 97 83 94 97 94 94 99 96 91 93
72 72 71 69 64 55 48 33 20 16 14 16 42 85 92 97 94 85 83 99 98 98 75 41 39 40 49 76 86 72 74 84 91 99 98 97 100 96 94 93 98 96 97 96 95 96 92 93 97 98 94 95 94 91
53 38 29 26 25 26 28 27 30 41 40 84 78 90 96 96 98 80 88 98 100 100 82 41 37 47 55 61 68 69 74 89 97 98 99 98 96 99 95 97 88 86 96 96 98 98 98 98 98 99 99 96 96 95
43 51 54 55 56 55 64 65 98 100 100 100 99 98 97 97 98 96 99 86 77 96 100 88 32 38 47 55 69 83 93 99 98 97 96 96 98 98 97 100 94 97 98 98 98 95 92 95 96 96 97 94 95 99
70 74 81 86 93 100 100 100 100 98 96 97 98 97 98 98 97 91 98 98 100 83 74 60 62 49 60 71 79 85 92 93 94 99 97 98 97 98 96 95 97 99 96 94 97 88 55 99 98 100 99 89 33 17
80 86 87 86 92 100 100 99 97 95 98 94 95 96 96 98 95 83 68 77 70 63 77 98 74 62 65 80 87 91 89 90 90 96 95 90 94 95 87 96 99 90 90 95 59 29 77 87 77 39 17 14 14 15
79 100 97 99 100 100 98 98 96 92 92 89 95 97 98 97 96 92 70 55 53 59 100 91 81 75 81 92 97 93 93 93 91 85 87 82 77 72 57 80 74 67 78 39 18 25 19 13 11 11 10 10 10 11
86 94 99 99 98 100 98 98 86 91 89 99 98 98 93 95 95 78 58 58 64 97 99 72 69 89 98 98 94 98 98 92 91 84 83 82 74 42 58 41 36 24 8 8 8 8 8 8 7 6 6 7 8 9
100 93 88 99 97 98 98 98 88 84 95 96 96 96 96 97 96 84 48 71 85 95 91 85 93 100 98 98 100 98 96 94 88 84 86 80 69 42 32 14 9 8 8 7 6 5 5 5 5 5 6 6 7 8
100 99 88 95 98 97 98 96 95 96 88 93 97 97 96 96 84 50 86 87 92 99 93 90 76 85 92 95 98 98 96 91 91 91 89 73 40 51 13 7 6 6 6 5 5 5 5 5 5 6 6 7 8 8
100 100 96 85 96 98 96 97 97 95 96 98 98 96 94 77 57 70 90 96 98 97 90 90 86 75 90 95 99 96 94 95 96 92 79 67 17 20 20 9 5 5 5 5 5 6 6 6 6 6 6 7 8 9
100 100 98 83 93 97 96 99 97 98 99 99 96 92 94 57 63 76 90 100 99 98 92 92 76 71 92 99 96 95 95 94 93 85 75 42 10 6 8 10 6 5 5 5 5 6 7 7 7 7 8 8 9 10
100 100 99 77 96 96 96 97 97 97 99 97 92 90 90 46 43 77 89 97 98 99 96 49 25 60 90 98 96 94 94 91 88 74 66 33 18 7 6 8 7 6 5 5 6 6 7 8 8 8 9 9 10 11
99 96 97 80 98 95 97 98 97 97 98 97 87 82 91 88 68 51 52 61 83 67 30 26 67 88 95 92 90 88 94 83 73 36 32 35 32 7 6 7 8 8 7 6 6 7 7 8 8 9 10 11 12 13
99 100 90 91 98 97 96 98 97 97 98 96 86 82 91 85 80 74 65 41 30 26 23 43 91 90 90 93 84 83 89 94 96 95 94 90 75 16 7 6 7 8 9 9 8 8 9 10 10 10 11 12 14 16
99 98 96 95 94 97 97 96 98 97 95 84 84 93 94 94 93 73 38 32 28 24 24 62 95 92 87 89 79 87 96 96 95 96 96 94 87 48 7 7 7 8 10 11 12 12 13 13 14 14 14 15 16 19
98 96 98 94 96 97 97 98 96 94 86 86 88 95 94 74 39 33 27 25 25 30 54 93 95 82 79 89 93 96 96 96 96 96 97 95 93 76 9 7 8 9 11 12 13 15 16 17 18 19 18 17 19 22
94 95 89 98 97 97 97 94 88 84 77 80 85 86 42 26 31 54 65 74 87 99 100 93 77 85 95 98 98 97 97 97 96 96 97 96 96 74 9 8 9 10 12 14 15 17 19 20 23 24 22 21 22 24
78 90 99 97 96 96 94 86 83 86 88 88 71 40 37 43 35 30 45 71 85 79 72 79 92 99 97 97 97 96 97 97 96 96 97 97 97 60 9 8 10 12 13 15 17 19 22 24 27 28 27 24 25 27
81 96 95 97 93 96 93 88 87 88 87 82 79 66 29 24 42 63 80 82 75 78 94 98 98 96 96 96 96 96 96 96 96 97 97 96 96 32 10 10 11 13 14 16 19 22 25 28 30 30 29 27 27 28
91 95 97 98 93 87 90 84 86 81 88 64 30 28 35 63 83 87 90 83 88 97 98 96 96 96 96 96 78 85 96 97 96 96 96 97 75 12 9 10 12 14 16 18 20 22 27 31 32 31 30 28 28 30
97 99 96 90 85 82 73 71 55 46 35 35 53 70 86 90 91 95 92 96 99 98 96 97 97 96 96 97 56 60 97 97 96 97 97 78 14 10 12 13 15 16 16 17 19 22 28 31 31 31 30 30 30 31
86 88 82 73 74 45 18 23 25 46 83 96 95 94 94 98 99 100 97 96 96 96 96 96 96 96 82 27 13 64 97 98 97 95 57 11 10 12 14 15 15 15 15 16 19 22 30 31 31 32 32 33 32 33
58 48 31 25 60 85 94 95 95 96 95 96 96 97 97 99 99 96 96 96 96 96 96 95 70 16 17 28 29 94 96 97 96 41 11 10 12 13 14 15 15 15 15 17 18 26 32 32 34 35 37 34 34 35
18 35 71 87 95 97 96 94 95 96 96 96 95 96 96 96 96 95 96 96 97 95 49 12 10 56 75 82 88 96 93 69 17 10 11 13 14 15 23 27 24 23 19 17 21 31 32 35 37 39 40 38 36 37
23 32 63 87 93 95 96 97 96 95 96 96 96 96 95 94 94 96 96 96 96 58 10 11 73 73 92 99 96 97 59 13 10 12 14 20 81 96 97 98 92 34 19 19 30 33 35 38 42 44 44 41 39 41
85 92 96 98 99 98 98 98 98 97 97 98 97 97 96 96 97 97 97 96 84 24 9 13 38 80 90 94 98 96 32 10 12 14 51 72 52 84 96 96 60 26 21 29 36 38 41 45 48 50 49 45 42 43
95 96 96 95 98 99 96 98 98 98 98 97 97 97 97 97 97 96 94 77 51 21 13 14 15 37 87 89 95 86 23 11 12 20 86 90 72 88 97 72 30 23 29 38 40 43 47 52 56 59 56 48 44 46
74 71 71 78 82 92 97 98 97 97 97 97 98 97 97 96 96 80 85 91 66 40 20 14 14 14 44 93 95 72 22 13 12 15 55 60 68 97 88 38 24 29 40 44 47 51 56 65 70 69 66 52 48 53
45 48 58 69 74 85 93 96 96 96 96 96 96 96 97 96 93 73 55 53 39 24 18 14 13 14 14 20 72 98 78 62 47 64 94 98 75 33 23 24 35 44 49 53 58 66 76 78 77 79 75 58 56 66
85 91 94 95 94 93 93 92 89 90 91 96 96 96 95 88 54 25 18 18 16 14 14 13 13 14 16 18 19 18 17 17 17 18 19 22 25 29 38 46 51 56 62 74 87 87 83 85 90 92 84 66 67 81

GFSWCAN_700_rhum_303.txt.gz
RH
82 80 77 78 76 76 74 73 74 74 74 70 67 65 46 29 30 95 80 79 98 96 87 79 77 84 93 98 93 90 94 79 91 100 93 89 93 80 83 75 82 84 89 94 90 100 88 68 76 86 87 96 95 90
81 77 77 76 74 70 61 51 45 50 78 98 99 99 92 53 84 100 97 94 94 100 78 77 80 77 77 82 95 88 86 99 99 98 95 97 95 95 98 99 89 92 76 83 98 80 74 91 95 100 97 87 88 96
73 73 66 49 31 26 27 30 31 32 54 100 100 99 100 98 94 98 98 100 99 98 82 68 72 73 73 73 78 84 77 98 88 99 96 97 99 99 97 95 93 94 97 96 98 88 96 94 97 97 83 90 100 88
42 30 31 40 48 53 58 60 64 75 100 95 98 98 94 96 96 98 96 97 99 98 93 67 81 61 58 58 78 76 87 91 92 100 98 96 95 95 95 99 99 96 98 97 95 94 99 91 87 91 96 99 95 93
42 49 53 58 63 68 69 73 85 94 99 96 96 90 91 91 97 98 96 95 87 94 89 84 68 56 68 71 90 92 85 97 94 97 99 99 98 100 93 93 82 90 96 97 96 98 95 97 98 97 98 97 96 96
56 63 64 67 74 77 82 100 97 98 100 94 89 92 93 97 98 96 85 81 96 98 98 93 49 30 47 60 69 78 92 93 97 97 98 96 97 98 97 99 90 96 98 99 100 93 92 87 86 95 100 100 96 94
28 24 30 53 99 100 100 98 98 100 96 85 88 92 90 94 97 94 98 96 94 97 99 95 48 44 61 68 82 86 94 98 100 100 99 99 100 98 93 87 97 98 87 88 92 87 40 64 92 95 96 87 40 14
63 72 79 92 98 98 97 97 96 99 95 94 96 88 90 95 99 84 90 98 96 95 88 93 62 58 64 78 90 97 92 91 92 96 92 88 90 91 77 71 82 87 80 76 65 39 62 34 20 14 12 11 10 10
69 75 81 92 100 95 96 98 96 96 96 94 89 91 93 94 96 97 98 97 97 95 88 82 71 78 82 91 98 94 95 97 93 87 84 80 72 58 52 58 62 65 70 22 11 13 10 9 8 8 7 6 6 7
59 68 91 100 100 94 88 98 96 96 98 95 93 95 94 96 97 95 92 96 74 99 99 69 61 84 92 96 98 100 99 93 92 83 80 78 65 47 46 22 8 7 7 7 7 6 5 5 5 5 5 5 6 6
56 64 98 100 99 94 83 96 98 96 92 90 97 95 98 98 97 97 97 66 93 98 92 89 93 95 92 98 100 98 96 96 89 82 80 77 52 29 23 9 7 6 6 5 4 4 4 5 5 5 5 5 6 6
57 65 94 99 98 95 85 98 97 96 90 84 93 97 97 97 98 97 70 80 92 98 97 96 81 88 74 95 99 99 96 93 91 91 87 67 44 20 14 6 5 4 4 4 5 5 5 5 5 6 6 6 6 6
86 97 90 100 98 99 90 98 96 93 95 97 98 97 97 94 95 50 85 93 98 97 98 90 95 72 63 93 100 97 95 95 96 91 76 62 23 8 19 7 5 5 5 5 6 6 7 7 8 7 7 7 7 7
90 99 97 99 97 97 86 97 95 91 97 98 96 95 92 88 55 64 82 97 97 97 96 93 82 36 57 98 97 96 95 94 95 83 71 59 18 8 7 11 7 5 5 5 5 6 7 8 8 8 8 8 8 9
93 99 92 98 96 96 94 97 96 94 97 95 92 90 91 71 47 46 81 96 98 96 96 86 21 34 76 96 96 95 94 94 93 87 78 52 31 30 9 6 8 6 5 5 5 6 6 7 8 8 9 9 10 10
98 87 95 97 97 89 97 96 98 97 97 96 92 85 95 94 89 79 73 70 71 65 34 24 28 72 93 92 89 92 94 89 94 93 65 47 60 67 60 10 7 8 8 7 7 7 7 8 9 9 10 11 12 12
94 88 96 97 87 96 98 98 96 96 96 95 83 88 89 95 97 96 89 78 65 47 30 26 34 85 83 90 82 82 89 95 97 97 95 95 95 94 89 56 7 8 8 9 9 9 10 11 12 13 14 14 15 15
89 96 97 90 92 96 97 97 96 96 93 78 85 94 95 95 96 96 90 81 50 43 30 37 38 41 61 76 76 84 95 97 96 96 95 93 93 94 96 89 11 7 8 10 11 12 13 14 15 17 18 18 18 17
94 95 94 96 96 96 98 97 98 96 82 82 88 93 95 92 96 61 39 44 33 28 31 39 46 52 68 86 93 96 97 97 96 96 96 95 95 94 95 94 16 8 8 10 11 13 15 16 18 20 22 22 21 20
88 91 88 92 96 96 95 93 87 93 84 83 86 84 80 62 33 28 42 54 68 77 81 77 69 84 97 98 99 99 97 96 96 94 96 97 97 96 97 90 13 9 9 11 14 15 16 18 20 22 24 25 25 23
84 89 96 99 97 96 92 87 85 86 82 79 75 74 74 72 51 36 39 38 42 44 52 71 92 100 97 100 97 96 97 96 97 96 95 97 98 99 98 85 12 9 11 14 16 17 18 20 23 25 26 27 26 25
82 83 92 99 98 95 93 89 79 80 79 76 76 70 50 29 23 30 63 76 76 84 93 98 98 97 97 96 98 97 96 96 96 96 97 97 97 98 97 69 11 11 14 16 16 18 20 22 26 27 27 28 27 26
83 86 94 99 94 84 77 77 77 74 81 76 56 41 41 51 67 83 89 87 95 98 98 97 96 96 96 97 98 97 94 50 64 96 96 96 96 96 95 27 11 12 14 17 18 20 20 24 27 28 28 29 29 30
86 85 91 91 84 79 69 67 59 59 43 27 50 80 89 90 91 93 93 96 94 94 95 96 96 96 97 96 88 37 17 18 87 96 96 97 97 94 37 12 13 15 16 17 19 18 19 22 29 30 30 31 35 35
77 84 75 72 64 65 46 38 70 69 65 91 93 91 93 97 97 98 96 94 94 95 96 97 97 89 43 16 37 68 53 83 98 98 97 97 85 21 12 14 16 17 18 18 17 17 18 24 31 32 33 37 39 36
52 57 40 22 39 74 89 92 94 94 95 95 94 95 95 97 98 95 94 96 96 96 96 76 22 10 30 66 79 82 93 95 98 98 91 38 12 12 13 14 15 16 16 17 17 18 20 30 33 34 36 40 41 39
41 18 22 44 78 96 97 94 96 98 98 96 94 95 96 94 96 94 97 96 97 97 88 22 11 51 69 83 94 93 94 95 95 58 18 12 14 16 17 17 26 32 38 44 23 20 26 34 36 38 42 45 46 42
29 26 32 61 85 92 94 93 95 94 95 96 97 95 94 94 94 97 97 96 96 96 60 12 15 22 53 83 90 97 98 74 21 12 12 15 16 25 87 97 98 98 98 47 22 23 34 39 41 44 48 52 53 48
75 83 91 93 94 95 94 93 95 96 97 98 98 97 96 96 97 96 96 96 95 75 41 16 17 21 24 65 83 92 92 28 12 12 14 16 62 75 68 93 98 98 66 27 25 34 42 44 48 52 57 68 67 52
92 93 93 92 94 98 94 99 98 97 97 97 97 96 97 97 97 97 97 95 94 87 51 38 23 17 15 53 86 91 71 18 12 13 15 29 79 86 92 84 97 98 48 28 34 45 48 52 57 66 86 84 72 58
75 73 75 70 59 58 68 80 87 93 96 98 98 97 97 96 97 97 96 82 88 91 75 42 22 14 14 24 89 92 58 25 14 14 14 19 56 92 76 86 97 55 30 34 46 52 58 63 80 96 93 82 82 69
54 61 64 68 78 92 95 94 95 96 97 99 99 100 99 99 98 96 74 48 22 16 15 14 13 14 15 16 17 29 67 87 84 69 57 49 55 86 98 68 34 30 37 52 59 65 70 93 100 95 90 93 93 78
77 82 85 88 90 92 94 96 92 92 91 96 97 95 98 88 55 36 26 26 38 30 20 22 28 32 34 29 24 22 21 21 21 22 21 23 23 26 28 31 39 52 59 66 73 94 100 100 98 100 100 97 95 84